Starlink 31883

operational
NORAD ID: 60020 Int'l Des: 2024-111 Owner: SPXS Country: US Constellation: starlink
LEOCIRCULAR

关于 Starlink 31883

正在加载描述...

实时位置

正在加载3D地球...

即将过境

高度历史

Altitude vs Time

uPlot chart will show altitude changes over time

两行轨道根数

1 60020U 24111E 25259.45729284 -.00003549 00000-0 -10792-3 0 9996
2 60020 53.1592 165.2107 0000976 95.1176 264.9936 15.30159706 72306
Epoch: Sep 16, 2025 • Age: 16 hours

当前状态

高度 475.2 km
速度 7.63 km/s
星下点 11.83°N, 73.81°W
发射日期 Jun 8, 2024
运行时间 1.2 years
类型 internet

技术详情

分类 Payload
质量 730.00 kg
干质量 700.00 kg
总质量 730.00 kg
长度 0.30 m
直径 4.10 m
跨度 29.00 m
形状 Box + pan
制造商 SPXS
平台类型 Starlink V2M
阶段状态 In Orbit
所有者/国家 SPXS/US

大型星座

Loading constellations...